User: anonymous   Login
Location: Kirkland Lake
(48.1510°N, 80.0330°W)
Time: 19:05:21
(UTC-04:00)
Language:

ISS - Orbit

View from above orbital plane
View from above orbital plane
View from above satellite
View from above satellite

Ground track
Ground track

The orbit data is extracted from the following two-line orbital elements,

1 25544U 98067A   24254.53607672  .00007291  00000-0  14093-3 0  9992
2 25544  51.6381 252.5736 0007830 335.9039 170.0487 15.48872224471783
Epoch (UTC): 10 September 2024 12:51:57
Eccentricity: 0.0007830
inclination: 51.6381°
perigee height: 415 km
apogee height: 425 km
right ascension of ascending node: 252.5736°
argument of perigee: 335.9039°
revolutions per day: 15.48872224
mean anomaly at epoch: 170.0487°
orbit number at epoch: 47178

The dashed part of the orbit path shows where the satellite is in the earth's shadow,  

DLR